CAPE
0 13 12 0 0 0 0 0 0 0 0 0 0 0 0 0 0 0 0 0 0 0 0 0 0 0 0 0 0 0 0 0 0 0 0 0 0 0 0 0 0 0 0 0
0 1 0 1 7 15 14 6 0 0 0 0 0 0 0 0 0 0 0 0 0 0 0 0 0 0 0 0 0 0 0 0 0 0 0 0 0 0 0 0 0 0 0 0
0 0 0 0 2 1 0 0 0 1 2 0 0 0 0 0 0 0 0 0 0 0 0 0 0 0 0 0 0 0 0 0 0 0 0 0 0 0 0 0 0 0 0 0
0 0 0 0 1 4 0 0 0 5 5 2 1 0 0 0 0 0 0 0 0 0 0 0 0 0 0 0 0 0 0 0 0 0 0 0 0 0 0 0 0 0 0 0
0 0 0 0 0 5 0 0 0 5 6 5 12 9 0 0 0 0 0 0 0 0 0 0 0 0 0 0 0 0 0 0 0 0 0 0 0 0 0 0 0 0 0 0
0 0 0 7 0 14 0 0 0 0 0 2 0 0 0 0 0 0 0 0 0 0 0 0 0 0 0 0 0 0 0 0 0 0 0 0 0 0 0 0 0 0 0 0
0 0 0 0 0 0 0 2 5 0 0 0 0 0 0 0 0 0 0 0 0 0 0 0 0 0 0 0 0 0 0 0 0 0 0 0 0 0 0 0 0 0 0 0
0 0 0 0 0 0 0 0 5 14 2 0 0 1 0 0 0 0 0 0 0 0 0 0 0 0 0 0 0 0 0 0 0 0 0 0 0 0 0 0 0 0 0 0
0 0 0 0 0 0 0 0 0 0 0 0 0 0 0 0 0 0 0 0 0 0 0 0 0 0 0 0 0 0 0 0 0 0 0 0 0 0 0 0 0 0 0 0
0 0 0 0 0 0 0 0 0 0 0 0 0 0 0 0 0 0 0 0 0 0 0 0 0 0 0 0 0 0 0 0 0 0 0 0 0 0 0 0 0 0 0 0
0 0 0 9 0 0 2 0 0 0 0 0 0 0 0 0 0 0 0 0 0 0 0 0 0 0 0 0 0 0 0 0 0 0 0 0 0 0 0 0 0 0 0 0
0 0 0 0 0 0 0 0 0 1 0 0 0 0 0 0 0 0 0 0 0 0 0 0 0 0 0 0 0 0 0 0 0 0 0 0 0 0 0 0 0 0 0 0
0 0 0 0 0 0 0 0 0 0 0 0 0 0 0 0 0 0 0 0 0 0 0 0 0 0 0 0 0 0 0 0 0 0 0 0 0 0 0 0 0 0 0 0
0 0 0 0 0 0 0 0 0 0 0 0 0 0 0 0 0 0 0 0 0 0 0 0 0 0 0 0 0 0 0 0 0 0 0 0 0 0 0 0 0 0 0 0
0 0 0 0 0 0 0 0 0 0 0 0 0 0 0 0 0 0 0 0 0 0 0 0 0 0 0 0 0 0 0 0 0 0 0 0 0 0 0 0 0 0 0 0
0 0 0 0 0 0 0 0 0 0 0 0 0 0 0 0 0 0 0 0 0 0 0 0 0 0 0 0 0 0 0 0 0 0 0 0 0 0 0 0 0 0 0 0
0 0 0 0 0 0 0 0 0 0 0 0 0 0 0 0 0 0 0 0 0 0 0 0 0 0 0 0 0 0 0 0 0 0 0 0 0 0 0 0 0 0 0 0
0 0 0 0 0 0 0 0 0 0 0 0 0 0 0 0 0 0 0 0 0 0 0 0 0 0 0 0 0 0 0 0 0 0 0 0 0 0 0 0 0 0 0 0
0 0 0 0 0 0 0 0 0 0 0 0 0 0 0 0 0 0 0 0 0 0 0 0 0 0 0 0 0 0 0 0 0 0 0 0 0 0 0 0 0 0 0 0
0 0 0 0 0 0 0 0 0 0 0 0 0 0 0 0 0 0 0 0 0 0 0 0 0 0 0 0 0 0 0 0 0 0 0 0 0 0 0 0 0 0 0 0
0 0 0 0 0 0 0 0 0 0 0 0 0 0 0 0 0 0 0 0 0 0 0 0 0 0 0 0 0 0 0 0 0 0 0 0 0 0 0 0 0 0 0 0
0 0 0 0 0 0 0 0 0 0 0 0 0 0 0 0 0 0 0 0 0 0 0 0 0 0 0 0 0 0 0 0 0 0 0 0 0 0 0 0 0 0 0 0
0 0 0 0 0 0 0 0 0 0 0 0 0 0 0 0 0 0 0 0 0 0 0 0 0 0 0 0 0 0 0 0 0 0 0 0 0 0 0 0 0 0 0 0
0 0 0 0 0 0 0 0 0 0 0 0 0 0 0 0 0 0 0 0 0 0 0 0 0 0 0 0 0 0 0 0 0 0 0 0 0 0 0 0 0 0 0 0
0 0 0 0 0 0 0 0 0 0 0 0 0 0 0 0 0 0 0 0 0 0 0 0 0 0 0 0 0 0 0 0 0 0 0 0 0 0 0 0 0 0 0 0
0 0 0 0 0 0 0 0 0 0 0 0 0 0 0 0 0 0 0 0 0 0 0 0 0 0 0 0 0 0 0 0 0 0 0 0 0 0 0 0 0 0 0 0
CIN
-0 -0 -1 -0 -0 -0 -0 -0 -0 -0 -0 -0 -0 -0 -0 -0 -0 -0 -0 -0 -0 -0 -0 -0 -0 -0 -0 -0 -0 -0 -0 -0 -0 -0 -0 -0 -0 -0 -0 -0 -0 -0 -0 -0
-0 -0 -0 -10 -3 -3 -0 -1 -0 -0 -0 -0 -0 -0 -0 -0 -0 -0 -0 -0 -0 -0 -0 -0 -0 -0 -0 -0 -0 -0 -0 -0 -0 -0 -0 -0 -0 -0 -0 -0 -0 -0 -0 -0
-0 -0 -0 -0 -0 -10 -3 -0 -0 -1 -3 -0 -2 -0 -0 -0 -0 -0 -0 -0 -0 -0 -0 -0 -0 -0 -0 -0 -0 -0 -0 -0 -0 -0 -0 -0 -0 -0 -0 -0 -0 -0 -0 -0
-0 -0 -0 -0 -0 -0 -1 -1 -1 -0 -8 -2 -4 -0 -0 -0 -0 -0 -0 -0 -0 -0 -0 -0 -0 -0 -0 -0 -0 -0 -0 -0 -0 -0 -0 -0 -0 -0 -0 -0 -0 -0 -0 -0
-0 -0 -0 -0 -0 -0 -0 -0 -0 -1 -4 -5 -6 -2 -0 -0 -0 -0 -0 -0 -0 -0 -0 -0 -0 -0 -0 -0 -0 -0 -0 -0 -0 -0 -0 -0 -0 -0 -0 -0 -0 -0 -0 -0
-0 -0 -0 -3 -0 -1 -0 -0 -0 -0 -0 -3 -0 -0 -0 -0 -0 -0 -0 -0 -0 -0 -0 -0 -0 -0 -0 -0 -0 -0 -0 -0 -0 -0 -0 -0 -0 -0 -0 -0 -0 -0 -0 -0
-0 -0 -0 -0 -0 -0 -0 -5 -11 -0 -0 -3 -0 -0 -0 -0 -0 -0 -0 -0 -0 -0 -0 -0 -0 -0 -0 -0 -0 -0 -0 -0 -0 -0 -0 -0 -0 -0 -0 -0 -0 -0 -0 -0
-0 -0 -0 -0 -0 -0 -0 -0 -6 -6 -24 -0 -0 -3 -0 -0 -0 -0 -0 -0 -0 -0 -0 -0 -0 -0 -0 -0 -0 -0 -0 -0 -0 -0 -0 -0 -0 -0 -0 -0 -0 -0 -0 -0
-1 -0 -0 -0 -0 -0 -0 -0 -0 -0 -0 -0 -0 -0 -0 -0 -0 -0 -0 -0 -0 -0 -0 -0 -0 -0 -0 -0 -0 -0 -0 -0 -0 -0 -0 -0 -0 -0 -0 -0 -0 -0 -0 -0
-0 -0 -0 -0 -0 -0 -2 -0 -0 -0 -14 -0 -0 -0 -0 -0 -0 -0 -0 -0 -0 -0 -0 -0 -0 -0 -0 -0 -0 -0 -0 -0 -0 -0 -0 -0 -0 -0 -0 -0 -0 -0 -0 -0
-0 -0 -0 -1 -0 -0 -0 -0 -1 -0 -0 -0 -0 -0 -0 -0 -0 -0 -0 -0 -0 -0 -0 -0 -0 -0 -0 -0 -0 -0 -0 -0 -0 -0 -0 -0 -0 -0 -0 -0 -0 -0 -0 -0
-0 -0 -0 -0 -0 -0 -0 -0 -0 -2 -0 -0 -0 -0 -0 -0 -0 -0 -0 -0 -0 -0 -0 -0 -0 -0 -0 -0 -0 -0 -0 -0 -0 -0 -0 -0 -0 -0 -0 -0 -0 -0 -0 -0
-0 -0 -0 -0 -0 -0 -1 -0 -0 -0 -0 -0 -0 -0 -0 -0 -0 -0 -0 -0 -0 -0 -0 -0 -0 -0 -0 -0 -0 -0 -0 -0 -0 -0 -0 -0 -0 -0 -0 -0 -0 -0 -0 -0
-0 -0 -0 -0 -0 -0 -0 -0 -0 -0 -0 -0 -0 -0 -0 -0 -0 -0 -0 -0 -0 -0 -0 -0 -0 -0 -0 -0 -0 -0 -0 -0 -0 -0 -0 -0 -0 -0 -0 -0 -0 -0 -0 -0
-0 -0 -0 -0 -0 -0 -0 -0 -0 -0 -0 -0 -0 -0 -0 -0 -0 -0 -0 -0 -0 -0 -0 -0 -0 -0 -0 -0 -0 -0 -0 -0 -0 -0 -0 -0 -0 -0 -0 -0 -0 -0 -0 -0
-0 -0 -0 -0 -0 -0 -0 -0 -0 -0 -0 -0 -0 -0 -0 -0 -0 -0 -0 -0 -0 -0 -0 -0 -0 -0 -0 -0 -0 -0 -0 -0 -0 -0 -0 -0 -0 -0 -0 -0 -0 -0 -0 -0
-1 -0 -0 -0 -0 -0 -0 -0 -0 -0 -0 -0 -0 -0 -0 -0 -0 -0 -0 -0 -0 -0 -0 -0 -0 -0 -0 -0 -0 -0 -0 -0 -0 -0 -0 -0 -0 -0 -0 -0 -0 -0 -0 -0
-0 -0 -0 -0 -0 -0 -0 -0 -0 -0 -0 -0 -0 -0 -0 -0 -0 -0 -0 -0 -0 -0 -0 -0 -0 -0 -0 -0 -0 -0 -0 -0 -0 -0 -0 -0 -0 -0 -0 -0 -0 -0 -0 -0
-0 -0 -0 -0 -0 -0 -0 -0 -0 -0 -0 -0 -0 -0 -0 -0 -0 -0 -0 -0 -0 -0 -0 -0 -0 -0 -0 -0 -0 -0 -0 -0 -0 -0 -0 -0 -0 -0 -0 -0 -0 -0 -0 -0
-0 -0 -0 -0 -0 -0 -0 -0 -0 -0 -0 -0 -0 -0 -0 -0 -0 -0 -0 -0 -0 -0 -0 -0 -0 -0 -0 -0 -0 -0 -0 -0 -0 -0 -0 -0 -0 -0 -0 -0 -0 -0 -0 -0
-0 -0 -0 -0 -0 -0 -0 -0 -0 -0 -0 -0 -0 -0 -0 -0 -0 -0 -0 -0 -0 -0 -0 -0 -0 -0 -0 -0 -0 -0 -0 -0 -0 -0 -0 -0 -0 -0 -0 -0 -0 -0 -0 -0
-0 -0 -0 -0 -0 -0 -0 -0 -0 -0 -0 -0 -0 -0 -0 -0 -0 -0 -0 -0 -0 -0 -0 -0 -0 -0 -0 -0 -0 -0 -0 -0 -0 -0 -0 -0 -0 -0 -0 -0 -0 -0 -0 -0
-0 -0 -0 -0 -0 -0 -0 -0 -0 -0 -0 -0 -0 -0 -0 -0 -0 -0 -0 -0 -0 -0 -0 -0 -0 -0 -0 -0 -0 -0 -0 -0 -0 -0 -0 -0 -0 -0 -0 -0 -0 -0 -0 -0
-0 -0 -0 -0 -0 -0 -0 -0 -0 -0 -0 -0 -0 -0 -0 -0 -0 -0 -0 -0 -0 -0 -0 -0 -0 -0 -0 -0 -0 -0 -0 -0 -0 -0 -0 -0 -0 -0 -0 -0 -0 -0 -0 -0
-0 -0 -0 -0 -0 -0 -0 -0 -0 -0 -0 -0 -0 -0 -0 -0 -0 -0 -0 -0 -0 -0 -0 -0 -0 -0 -0 -0 -0 -0 -0 -0 -0 -0 -0 -0 -0 -0 -0 -0 -0 -0 -0 -0
-0 -0 -0 -0 -0 -0 -0 -0 -0 -0 -0 -0 -0 -0 -0 -0 -0 -0 -0 -0 -0 -0 -0 -0 -0 -0 -0 -0 -0 -0 -0 -0 -0 -0 -0 -0 -0 -0 -0 -0 -0 -0 -0 -0
Wind_Speed
47 52 60 55 56 57 60 60 63 57 46 47 55 67 54 48 48 51 50 48 49 49 48 44 41 38 37 35 34 32 31 29 27 27 27 27 26 24 23 20 17 16 17 17
52 62 58 55 52 55 59 64 68 59 53 53 59 68 53 50 51 53 53 54 51 48 46 43 40 37 37 37 35 33 32 31 29 29 28 29 27 27 24 21 19 18 17 17
57 61 47 53 58 60 62 64 66 65 49 52 55 73 64 55 54 54 52 53 52 50 47 42 36 37 37 37 36 35 32 31 30 29 27 27 25 26 25 24 23 21 20 18
49 62 59 56 55 55 67 57 57 61 58 71 47 80 65 60 59 54 58 55 54 50 47 49 45 40 36 35 33 34 33 31 29 28 28 28 29 29 27 25 23 21 20 19
48 47 54 58 56 49 56 47 52 54 57 60 56 64 67 57 59 56 58 57 54 54 50 49 47 43 37 33 33 31 32 31 30 29 29 29 29 27 25 24 23 22 21 21
47 41 41 43 42 44 46 43 45 47 50 70 65 63 79 59 59 58 56 58 52 51 50 49 45 43 40 35 35 33 32 32 31 30 30 29 29 26 25 24 24 23 23 22
33 35 46 41 42 38 39 42 49 53 57 67 55 59 69 44 54 61 61 55 51 47 46 45 45 46 44 40 38 36 34 34 32 31 31 30 29 27 27 25 25 24 24 23
27 30 25 31 41 37 36 41 44 50 47 55 45 56 58 54 55 41 41 44 47 45 42 42 43 41 39 40 40 39 39 37 34 33 32 31 30 30 28 26 25 25 24 23
26 27 32 31 28 32 36 43 33 42 40 44 42 42 43 43 43 42 50 50 52 47 44 47 46 42 38 32 33 35 38 39 36 33 31 31 30 29 29 27 25 24 23 23
25 28 21 20 24 27 31 27 32 38 42 50 42 42 41 40 43 43 44 43 44 44 45 44 43 40 36 34 28 28 30 35 33 32 31 30 29 28 27 26 25 24 23 22
26 22 24 22 25 26 29 33 29 26 28 27 33 39 30 37 36 39 37 37 38 42 42 39 35 33 32 28 27 27 29 27 28 27 26 27 27 27 26 26 25 24 23 22
23 23 25 25 25 26 29 32 32 33 32 32 34 38 22 28 31 31 34 36 35 33 31 31 30 28 28 28 25 24 25 24 24 22 21 22 22 23 25 25 25 24 24 24
21 21 23 19 15 15 23 28 28 31 28 35 36 39 24 24 26 28 31 32 29 26 24 22 23 24 25 25 24 23 20 20 20 19 19 20 19 20 22 24 24 23 23 24
22 20 19 21 21 22 18 20 25 29 32 32 33 37 30 32 30 31 31 28 25 24 23 20 19 19 18 18 18 19 19 18 18 19 19 19 19 19 18 20 22 24 25 25
23 23 19 22 22 18 15 18 22 20 20 25 26 29 29 33 35 34 31 28 27 26 24 20 16 15 15 14 15 16 18 19 19 20 21 20 18 19 20 20 22 23 25 25
24 23 23 22 17 16 14 17 16 19 22 22 28 27 30 32 31 31 30 28 28 27 27 24 16 16 17 17 16 17 18 19 19 20 22 21 21 21 21 21 21 22 25 26
26 22 20 20 18 16 16 16 15 14 18 19 22 27 31 30 30 29 29 28 28 27 30 28 20 17 19 18 17 17 18 17 17 19 20 19 19 21 23 23 24 25 24 24
27 25 22 23 19 15 14 16 17 15 18 20 21 25 28 30 28 22 25 26 28 29 27 25 21 18 17 17 16 13 14 15 14 15 16 17 18 20 21 22 23 23 24 25
28 20 23 21 20 15 17 21 20 18 18 23 23 25 25 25 19 19 27 27 28 29 26 20 16 18 18 15 15 11 9 8 10 13 13 14 16 16 17 20 22 23 24 24
17 22 23 21 21 20 22 23 22 18 20 25 25 26 25 25 21 25 30 27 26 24 20 15 12 9 11 12 13 13 12 10 10 11 12 12 15 16 18 18 18 19 21 22
14 16 22 25 21 19 24 24 18 21 24 27 26 26 26 25 24 28 27 25 23 21 18 13 9 8 9 9 10 12 13 13 13 13 13 15 15 16 17 17 18 19 20 22
13 16 17 17 17 21 23 19 17 21 24 26 27 27 28 28 28 27 26 24 23 20 18 14 11 9 9 10 11 12 14 14 14 15 16 16 16 16 15 15 17 19 19 20
13 13 13 14 12 12 16 17 20 22 24 26 28 29 28 28 28 27 25 24 22 21 18 15 13 11 13 14 13 13 14 14 14 15 16 17 16 17 17 18 18 18 18 19
17 18 15 15 16 18 18 21 24 25 26 27 27 27 27 28 28 27 25 24 23 21 19 17 15 14 14 15 16 16 14 14 15 16 16 16 16 17 16 16 17 17 17 18
17 18 18 17 19 18 19 25 26 27 26 26 26 26 27 27 27 26 26 24 23 22 20 18 17 16 15 14 13 13 14 13 13 13 13 14 14 15 16 16 17 18 17 17
20 20 20 20 22 23 25 27 27 27 26 26 26 27 27 27 27 26 25 24 23 22 21 19 17 16 15 15 14 14 14 14 15 15 16 16 16 16 16 17 17 17 18 18
Wind_Direction
266 258 251 251 251 254 257 258 258 259 261 259 257 259 262 261 260 258 258 260 262 262 263 262 259 257 253 251 247 245 244 245 245 248 250 255 255 257 258 258 259 263 270 275
261 257 253 254 255 254 254 255 256 261 260 260 259 258 262 261 259 258 259 259 260 262 264 264 260 256 252 249 248 246 245 245 246 248 250 257 256 261 260 259 261 263 266 270
260 256 261 254 253 253 253 255 255 256 263 261 262 259 259 260 260 259 260 260 261 261 262 263 262 256 254 249 247 247 244 245 244 247 249 257 258 263 261 261 262 263 263 267
270 259 256 257 256 250 253 253 257 257 258 256 258 257 258 258 259 258 257 258 259 261 262 261 261 262 257 248 244 245 244 242 241 240 243 247 252 256 259 259 260 260 262 267
275 267 253 253 254 251 252 254 255 257 258 259 257 257 257 258 257 256 257 258 260 261 263 262 261 260 258 253 247 244 244 243 242 240 243 246 252 256 260 258 256 259 264 268
279 271 254 252 258 254 255 255 255 256 257 254 254 254 253 256 256 258 259 260 263 264 265 263 262 260 259 256 250 246 242 243 243 243 244 244 249 251 254 255 255 259 264 268
297 277 252 255 254 260 253 247 251 253 251 254 256 255 254 264 260 260 260 262 265 266 265 264 263 260 258 255 251 248 245 245 245 245 247 248 250 250 252 252 256 257 263 267
301 293 264 248 245 251 248 248 245 250 256 256 259 257 258 261 264 268 266 263 265 268 266 265 265 264 263 257 253 249 247 246 245 245 248 250 251 253 255 255 258 259 261 264
306 297 289 254 250 238 248 249 256 260 266 265 264 268 270 266 265 265 265 268 266 268 268 267 269 267 263 260 255 251 247 246 244 244 246 248 250 252 254 257 259 259 261 264
308 298 302 275 251 251 250 252 253 254 260 257 266 266 266 264 265 267 268 270 272 273 272 271 270 268 264 260 258 253 248 245 243 244 246 247 249 252 254 257 257 259 261 263
295 307 289 286 254 247 241 249 251 266 264 270 269 268 271 273 275 273 274 279 282 278 276 273 275 270 265 262 257 252 249 242 241 242 245 245 250 254 255 255 257 258 262 264
296 299 286 275 278 258 247 254 250 255 261 267 272 272 293 287 287 286 284 285 285 286 285 277 275 272 266 261 257 252 247 241 241 241 241 245 249 253 255 257 257 259 261 265
286 292 297 283 300 278 253 252 257 259 269 265 269 274 296 300 297 294 290 291 288 289 291 290 280 274 267 261 256 250 245 241 237 235 240 248 252 255 256 258 259 261 263 266
277 269 271 267 270 273 268 271 272 263 265 269 271 272 279 290 296 296 297 299 300 290 287 291 288 281 273 262 254 248 244 241 240 241 243 249 255 257 259 261 263 264 267 269
289 269 267 264 270 275 293 289 280 292 271 277 279 277 285 291 289 292 299 296 292 289 286 286 284 278 273 269 259 254 249 246 247 248 250 251 254 260 263 266 268 270 271 272
283 281 293 276 284 294 310 302 295 290 294 294 285 284 297 295 302 295 294 294 293 283 274 273 280 271 266 266 268 262 255 253 251 250 252 255 257 259 263 268 271 274 275 276
269 263 271 265 289 290 280 305 328 330 326 312 298 291 290 291 299 301 297 294 289 287 269 267 277 277 269 269 269 265 257 258 258 255 255 256 259 263 267 272 274 277 279 280
259 266 271 263 278 289 297 304 306 322 335 336 319 308 301 288 290 312 314 299 285 289 283 275 280 282 280 275 272 270 262 263 261 259 259 263 266 269 274 277 278 280 281 281
249 269 265 273 281 289 296 308 304 304 316 327 311 313 315 303 314 308 318 307 299 291 284 288 288 279 274 277 272 269 270 276 272 268 272 277 276 279 283 282 284 285 285 285
262 256 262 272 276 286 303 296 298 304 297 318 318 317 314 325 319 311 316 315 313 307 304 304 296 293 283 276 271 269 271 279 280 282 283 288 288 290 290 291 293 294 292 291
272 278 271 268 280 290 304 311 321 288 289 308 312 317 318 322 316 305 312 317 324 328 324 315 311 299 287 284 280 279 281 280 282 285 291 291 294 296 296 297 295 296 295 295
309 285 293 301 299 290 305 302 314 305 311 314 317 321 317 320 322 327 328 328 332 327 334 323 315 308 299 292 285 281 281 285 289 289 290 293 296 299 302 302 302 301 301 299
286 295 295 303 310 316 326 334 325 315 312 315 317 320 324 325 326 329 331 331 333 337 335 330 325 315 300 294 292 289 290 293 293 293 293 291 294 297 301 300 302 304 306 304
307 323 303 307 320 311 320 325 325 320 317 315 316 318 322 318 317 322 325 324 320 325 330 324 330 321 313 304 295 293 295 298 298 296 295 296 298 302 304 306 307 307 307 306
307 304 314 326 326 334 328 327 321 317 321 319 319 323 325 325 324 323 322 324 325 323 327 324 318 316 314 316 314 309 302 299 298 299 301 304 306 306 306 307 308 307 310 311
312 315 314 308 326 316 312 318 321 322 320 322 322 322 325 327 324 326 328 329 327 325 327 324 327 326 321 317 314 313 308 304 301 300 300 301 303 305 307 309 309 313 312 313